Find Starlink 31438

NORAD ID: 59234 Int'l Des: 2024-049 Owner: SPXS Country: US Constellation: starlink operational
LEOCIRCULAR

現在のビュー

3D地球を読み込み中...

About Starlink 31438

Starlink 31438 (NORAD 59234) is a starlink constellation satellite (v2 mini) launched Mar 16, 2024 by SPXS of US. It operates in LEO, CIRCULAR orbit with a mass of 730.00 kg.

次回通過

Passes for default location (London). Set your location on the main map for personalized predictions.

高度履歴

Loading altitude history...

軌道要素

1 59234U 24049D 26237.12726364 -.00000049 00000-0 77605-5 0 9997
2 59234 43.0032 261.2834 0001498 277.9971 82.0710 15.27577331138288
Epoch: Aug 25, 2026 • Age: 36 hours

現在のステータス

高度 482.0 km
遠地点 / 近地点 N/A
速度 7.63 km/s
衛星直下点 9.32°N, 59.86°E
打ち上げ日 Mar 16, 2024
運用期間 2.4 years
タイプ internet

技術仕様

分類 Payload
質量 730.00 kg
乾燥質量 700.00 kg
総質量 730.00 kg
長さ 0.30 m
直径 4.10 m
スパン 29.00 m
形状 Box + pan
製造者 SPXS
バスタイプ Starlink V2M
フェーズステータス In Orbit
所有者/国 SPXS/US

Most Searched